Home > Weather > Ontario > Past weeks

Flag for U.S.A. Weather for the Past 2 Weeks in Ontario, Oregon, U.S.A.

Now
33 °F

Fog.


Feels Like: 29 °F
Forecast: 32 / 47 °F
Wind: 5 mph from Southwest

Location: Ontario Municipal Airport

Current Time: Feb 13, 2016 at 12:12:19 AM

Latest Report: Feb 12, 2016 at 11:53 PM


Visibility: 4 mi

Pressure: 30.27 "Hg (27.89 "Hg at 656m altitude)

Humidity: 92%

Dew point: 31 °F

Location of OntarioLocation

Historic Weather in Ontario — Graph

°F

Ontario Temperature Yesterday

Maximum temperature yesterday: 45 °F (at 2:53 PM)
Minimum temperature yesterday: 28 °F (at 4:53 AM)
Average temperature yesterday: 35 °F

High & Low Weather Summary for the Past Weeks

 TemperatureHumidityPressure
High46 °F (Feb 7, 3:53 PM)96% (Jan 29, 6:53 AM)30.84 "Hg (Jan 29, 6:53 AM)
Low18 °F (Jan 31, 7:01 AM)49% (Feb 1, 3:53 PM)29.82 "Hg (Jan 29, 3:02 PM)
Average32 °F82%30.40 "Hg
* Reported Jan 28 10:53 PM — Feb 12 10:53 PM, Ontario, Weather by CustomWeather, © 2016

Note: Actual official high and low records may vary slightly from our data, if they occured in-between our weather recording intervals... More about our weather records

Advertising

Ontario Weather History for the Previous 24 Hours

 ConditionsComfort  
Time TempWeatherWind HumidityBarometerVisibility
10:53 PM
Fri, Feb 12
35 °FFog.6 mph88%30.28 "Hg5 mi
9:53 PM35 °FFog.5 mph88%30.28 "Hg5 mi
8:53 PM37 °FFog.No wind86%30.30 "Hg6 mi
7:53 PM38 °FClear.5 mph83%30.31 "Hg8 mi
6:53 PM39 °FSunny.5 mph79%30.31 "Hg9 mi
5:53 PM43 °FPassing clouds.6 mph71%30.31 "Hg10 mi
4:53 PM45 °FOvercast.No wind63%30.32 "Hg10 mi
3:53 PM44 °FPartly sunny.No wind65%30.34 "Hg10 mi
2:53 PM45 °FPassing clouds.3 mph65%30.34 "Hg10 mi
1:53 PM43 °FPassing clouds.No wind71%30.38 "Hg9 mi
12:53 PM41 °FSunny.3 mph74%30.40 "Hg7 mi
12:00 PM36 °FFog.No wind89%30.37 "Hg5 mi
10:53 AM32 °FFog.No wind92%30.45 "Hg1 mi
9:53 AM30 °FIce fog.No wind96%30.46 "Hg0 mi
8:53 AM29 °FIce fog.No wind93%30.46 "Hg0 mi
7:53 AM29 °FIce fog.No wind93%30.45 "Hg0 mi
6:53 AM28 °FIce fog.No wind93%30.44 "Hg0 mi
5:53 AM29 °FIce fog.No wind93%30.43 "Hg1 mi
4:53 AM28 °FIce fog.No wind93%30.42 "Hg0 mi
3:53 AM29 °FIce fog.No wind93%30.42 "Hg0 mi
2:53 AM30 °FIce fog.No wind92%30.42 "Hg4 mi
1:53 AM32 °FIce fog.No wind88%30.42 "Hg5 mi
12:53 AM31 °FIce fog.5 mph92%30.41 "Hg5 mi
Weather by CustomWeather, © 2016

See weather overviewHow to use our weather pages